KLM5AM ELLX-EHAM

Flight info

Callsign KLM5AM
Flight time 0h 39m
Altitude 24000
Route LNO N852 TERLA L608 BUB Y28 HELEN
Aircraft B738/M-SDE2E3FGHIRWXY/LB1

Departure

Time 2026-04-27 17:59
Airport Luxembourg-Findel International Airport (ELLX)

Arrival

Time 2026-04-27 18:38
Airport Amsterdam Airport Schiphol (EHAM)
Time Latitude Longitude Altitude Speed Heading
2026-04-27 17:36 49.63389 6.21794 1229 ft 0 kts 330°
2026-04-27 17:51 49.63387 6.21795 1229 ft 1 kts 330°
2026-04-27 17:51 49.63373 6.21808 1229 ft 3 kts 330°
2026-04-27 17:51 49.63359 6.21820 1229 ft 3 kts 321°
2026-04-27 17:51 49.63348 6.21840 1229 ft 3 kts 275°
2026-04-27 17:52 49.63351 6.21867 1229 ft 3 kts 242°
2026-04-27 17:52 49.63356 6.21883 1229 ft 1 kts 240°
2026-04-27 17:52 49.63357 6.21886 1229 ft 0 kts 240°
2026-04-27 17:54 49.63357 6.21884 1229 ft 3 kts 240°
2026-04-27 17:54 49.63323 6.21814 1229 ft 8 kts 204°
2026-04-27 17:54 49.63261 6.21842 1229 ft 10 kts 160°
2026-04-27 17:55 49.63183 6.21904 1227 ft 12 kts 168°
2026-04-27 17:55 49.63130 6.21814 1225 ft 13 kts 246°
2026-04-27 17:55 49.63082 6.21664 1224 ft 17 kts 243°
2026-04-27 17:55 49.63025 6.21481 1226 ft 20 kts 244°
2026-04-27 17:56 49.62962 6.21277 1231 ft 21 kts 244°
2026-04-27 17:56 49.62894 6.21055 1232 ft 24 kts 245°
2026-04-27 17:56 49.62818 6.20814 1238 ft 25 kts 243°
2026-04-27 17:56 49.62691 6.20613 1238 ft 28 kts 218°
2026-04-27 17:57 49.62551 6.20378 1231 ft 33 kts 228°
2026-04-27 17:57 49.62411 6.20049 1212 ft 40 kts 242°
2026-04-27 17:57 49.62259 6.19644 1189 ft 47 kts 239°
2026-04-27 17:57 49.62114 6.19254 1167 ft 39 kts 241°
2026-04-27 17:58 49.61970 6.18868 1157 ft 37 kts 238°
2026-04-27 17:58 49.61854 6.18726 1156 ft 21 kts 191°
2026-04-27 17:58 49.61794 6.18867 1161 ft 19 kts 60°
2026-04-27 17:58 49.61960 6.19310 1172 ft 82 kts 60°
2026-04-27 17:59 49.62344 6.20342 1226 ft 136 kts 60°
2026-04-27 17:59 49.62885 6.21782 1485 ft 164 kts 58°
2026-04-27 17:59 49.63503 6.23292 2212 ft 165 kts 55°
2026-04-27 17:59 49.64161 6.24727 2933 ft 169 kts 60°
2026-04-27 18:00 49.64749 6.26407 3313 ft 194 kts 63°
2026-04-27 18:00 49.65419 6.28323 3676 ft 210 kts 61°
2026-04-27 18:00 49.66160 6.30387 3949 ft 231 kts 60°
2026-04-27 18:00 49.66977 6.32681 4278 ft 250 kts 61°
2026-04-27 18:01 49.67839 6.35081 4858 ft 263 kts 61°
2026-04-27 18:01 49.68894 6.37454 5522 ft 272 kts 44°
2026-04-27 18:01 49.70488 6.38978 6321 ft 274 kts 16°
2026-04-27 18:01 49.72402 6.39177 7093 ft 278 kts 347°
2026-04-27 18:02 49.74120 6.37917 7898 ft 279 kts 319°
2026-04-27 18:02 49.75323 6.35554 8682 ft 282 kts 297°
2026-04-27 18:02 49.76320 6.33016 9786 ft 276 kts 303°
2026-04-27 18:02 49.77461 6.30567 10569 ft 282 kts 305°
2026-04-27 18:03 49.78655 6.28127 11408 ft 285 kts 305°
2026-04-27 18:03 49.79853 6.25704 12286 ft 286 kts 305°
2026-04-27 18:03 49.81072 6.23243 12857 ft 296 kts 305°
2026-04-27 18:03 49.82377 6.20597 13132 ft 320 kts 305°
2026-04-27 18:04 49.83795 6.17715 13149 ft 349 kts 305°
2026-04-27 18:04 49.85299 6.14723 13129 ft 358 kts 309°
2026-04-27 18:04 49.87278 6.12313 13132 ft 364 kts 329°
2026-04-27 18:04 49.89611 6.10791 13134 ft 367 kts 337°
2026-04-27 18:05 49.92037 6.09444 13137 ft 368 kts 338°
2026-04-27 18:05 49.94432 6.08144 13125 ft 368 kts 338°
2026-04-27 18:05 49.96841 6.06819 13129 ft 368 kts 338°
2026-04-27 18:05 49.99263 6.05460 13126 ft 368 kts 337°
2026-04-27 18:06 50.01657 6.04099 13129 ft 368 kts 337°
2026-04-27 18:06 50.04062 6.02720 13142 ft 367 kts 337°
2026-04-27 18:06 50.06473 6.01334 13133 ft 367 kts 337°
2026-04-27 18:06 50.08849 5.99966 13132 ft 366 kts 337°
2026-04-27 18:07 50.11251 5.98585 13137 ft 365 kts 337°
2026-04-27 18:07 50.13607 5.97229 13138 ft 365 kts 337°
2026-04-27 18:07 50.16009 5.95844 13141 ft 364 kts 336°
2026-04-27 18:07 50.18362 5.94485 13148 ft 364 kts 336°
2026-04-27 18:08 50.20753 5.93101 13146 ft 366 kts 336°
2026-04-27 18:08 50.23173 5.91697 13156 ft 372 kts 337°
2026-04-27 18:08 50.25586 5.90297 13212 ft 375 kts 336°
2026-04-27 18:08 50.28054 5.88864 13994 ft 377 kts 336°
2026-04-27 18:09 50.30523 5.87430 14908 ft 376 kts 336°
2026-04-27 18:09 50.32967 5.86009 15651 ft 381 kts 336°
2026-04-27 18:09 50.35487 5.84540 16370 ft 385 kts 336°
2026-04-27 18:09 50.38008 5.83069 17093 ft 390 kts 336°
2026-04-27 18:10 50.40545 5.81587 17818 ft 394 kts 335°
2026-04-27 18:10 50.43151 5.80064 18522 ft 398 kts 335°
2026-04-27 18:10 50.45747 5.78545 19140 ft 402 kts 335°
2026-04-27 18:10 50.48390 5.76997 19797 ft 404 kts 335°
2026-04-27 18:11 50.51014 5.75459 20448 ft 407 kts 335°
2026-04-27 18:11 50.53691 5.73888 21113 ft 409 kts 335°
2026-04-27 18:11 50.56336 5.72333 21714 ft 412 kts 334°
2026-04-27 18:11 50.59052 5.70748 22276 ft 416 kts 335°
2026-04-27 18:12 50.61826 5.69392 22812 ft 422 kts 339°
2026-04-27 18:12 50.64667 5.68052 23358 ft 422 kts 333°
2026-04-27 18:12 50.67098 5.65651 23836 ft 412 kts 312°
2026-04-27 18:12 50.68919 5.62241 24153 ft 406 kts 299°
2026-04-27 18:13 50.70098 5.58228 24184 ft 400 kts 286°
2026-04-27 18:13 50.70944 5.54014 24190 ft 401 kts 284°
2026-04-27 18:13 50.71745 5.49823 24183 ft 400 kts 284°
2026-04-27 18:13 50.72550 5.45597 24182 ft 400 kts 284°
2026-04-27 18:14 50.73356 5.41410 24185 ft 399 kts 284°
2026-04-27 18:14 50.74170 5.37238 24183 ft 399 kts 285°
2026-04-27 18:14 50.74994 5.33043 24182 ft 399 kts 285°
2026-04-27 18:14 50.75824 5.28834 24210 ft 399 kts 285°
2026-04-27 18:15 50.76649 5.24651 24192 ft 401 kts 285°
2026-04-27 18:15 50.77473 5.20472 24191 ft 401 kts 285°
2026-04-27 18:15 50.78308 5.16219 24186 ft 402 kts 285°
2026-04-27 18:15 50.79133 5.12016 24181 ft 402 kts 285°
2026-04-27 18:16 50.79964 5.07764 24178 ft 403 kts 285°
2026-04-27 18:16 50.80783 5.03565 24177 ft 404 kts 285°
2026-04-27 18:16 50.81597 4.99334 24179 ft 404 kts 285°
2026-04-27 18:16 50.82416 4.95043 24176 ft 404 kts 285°
2026-04-27 18:17 50.83219 4.90823 24176 ft 404 kts 285°
2026-04-27 18:17 50.84032 4.86538 24182 ft 404 kts 285°
2026-04-27 18:17 50.84835 4.82304 24178 ft 404 kts 285°
2026-04-27 18:17 50.85647 4.78018 24181 ft 403 kts 285°
2026-04-27 18:18 50.86444 4.73802 24178 ft 403 kts 285°
2026-04-27 18:18 50.87251 4.69524 24183 ft 403 kts 285°
2026-04-27 18:18 50.88047 4.65299 24182 ft 404 kts 285°
2026-04-27 18:18 50.88847 4.61035 24187 ft 404 kts 285°
2026-04-27 18:19 50.89657 4.56731 24187 ft 404 kts 286°
2026-04-27 18:19 50.90668 4.52597 24181 ft 407 kts 294°
2026-04-27 18:19 50.92097 4.48678 24189 ft 408 kts 300°
2026-04-27 18:19 50.93602 4.44881 24184 ft 409 kts 300°
2026-04-27 18:20 50.95126 4.41029 24180 ft 409 kts 300°
2026-04-27 18:20 50.96633 4.37194 24185 ft 409 kts 299°
2026-04-27 18:20 50.98119 4.33380 24184 ft 409 kts 299°
2026-04-27 18:20 50.99598 4.29560 24185 ft 409 kts 299°
2026-04-27 18:21 51.01088 4.25695 24186 ft 409 kts 299°
2026-04-27 18:21 51.02582 4.21813 24186 ft 408 kts 299°
2026-04-27 18:21 51.04054 4.17983 24188 ft 408 kts 299°
2026-04-27 18:21 51.05524 4.14154 24189 ft 408 kts 299°
2026-04-27 18:22 51.07010 4.10278 24189 ft 408 kts 299°
2026-04-27 18:22 51.08510 4.06480 24190 ft 409 kts 303°
2026-04-27 18:22 51.10341 4.02964 24197 ft 412 kts 310°
2026-04-27 18:22 51.12496 3.99895 24195 ft 416 kts 319°
2026-04-27 18:23 51.14826 3.97209 24205 ft 416 kts 321°
2026-04-27 18:23 51.17185 3.94491 24200 ft 416 kts 320°
2026-04-27 18:23 51.19503 3.91770 24197 ft 415 kts 320°
2026-04-27 18:23 51.21891 3.89331 24191 ft 409 kts 330°
2026-04-27 18:24 51.24548 3.87721 24200 ft 403 kts 340°
2026-04-27 18:24 51.27277 3.86841 24199 ft 392 kts 350°
2026-04-27 18:24 51.30003 3.86691 24223 ft 399 kts 354°
2026-04-27 18:24 51.32816 3.86648 24227 ft 415 kts 355°
2026-04-27 18:25 51.35761 3.86616 24223 ft 427 kts 355°
2026-04-27 18:25 51.38768 3.86580 24229 ft 431 kts 355°
2026-04-27 18:25 51.41735 3.86536 24205 ft 427 kts 355°
2026-04-27 18:25 51.44718 3.86481 24207 ft 425 kts 355°
2026-04-27 18:26 51.47642 3.86418 24207 ft 423 kts 355°
2026-04-27 18:26 51.50583 3.86658 24195 ft 428 kts
2026-04-27 18:26 51.52576 3.87321 23979 ft 437 kts 11°
2026-04-27 18:26 51.55434 3.88959 23348 ft 441 kts 19°
2026-04-27 18:27 51.58272 3.90909 22500 ft 439 kts 20°
2026-04-27 18:27 51.61071 3.92840 21533 ft 440 kts 20°
2026-04-27 18:27 51.63887 3.94768 20523 ft 442 kts 20°
2026-04-27 18:27 51.66733 3.96700 19533 ft 442 kts 20°
2026-04-27 18:28 51.69555 3.98603 18556 ft 442 kts 20°
2026-04-27 18:28 51.72426 4.00534 17515 ft 441 kts 20°
2026-04-27 18:28 51.75180 4.02390 17323 ft 420 kts 20°
2026-04-27 18:28 51.77839 4.04182 16370 ft 419 kts 20°
2026-04-27 18:29 51.80514 4.05983 15356 ft 409 kts 20°
2026-04-27 18:29 51.83107 4.07731 14285 ft 402 kts 21°
2026-04-27 18:29 51.85675 4.09466 13138 ft 395 kts 21°
2026-04-27 18:29 51.88186 4.11164 12001 ft 389 kts 21°
2026-04-27 18:30 51.90681 4.12865 10891 ft 384 kts 22°
2026-04-27 18:30 51.92941 4.15076 9803 ft 382 kts 37°
2026-04-27 18:30 51.94986 4.17828 8658 ft 377 kts 39°
2026-04-27 18:30 51.96957 4.20543 7721 ft 369 kts 40°
2026-04-27 18:31 51.98858 4.23147 7401 ft 344 kts 39°
2026-04-27 18:31 52.00622 4.25539 7066 ft 324 kts 39°
2026-04-27 18:31 52.02316 4.27814 6736 ft 307 kts 39°
2026-04-27 18:31 52.03931 4.29972 6397 ft 293 kts 38°
2026-04-27 18:32 52.05483 4.32039 6052 ft 281 kts 39°
2026-04-27 18:32 52.06960 4.34006 5706 ft 272 kts 38°
2026-04-27 18:32 52.08421 4.35950 5379 ft 266 kts 38°
2026-04-27 18:32 52.09844 4.37844 5059 ft 266 kts 39°
2026-04-27 18:33 52.11281 4.39757 4708 ft 266 kts 38°
2026-04-27 18:33 52.12701 4.41653 4325 ft 266 kts 38°
2026-04-27 18:33 52.14140 4.43573 3949 ft 266 kts 39°
2026-04-27 18:33 52.15564 4.45474 3572 ft 266 kts 38°
2026-04-27 18:34 52.16976 4.47360 3180 ft 259 kts 38°
2026-04-27 18:34 52.18359 4.49211 2805 ft 253 kts 39°
2026-04-27 18:34 52.19696 4.51000 2436 ft 243 kts 39°
2026-04-27 18:34 52.20894 4.52842 2062 ft 229 kts 52°
2026-04-27 18:35 52.21733 4.54875 2003 ft 206 kts 59°
2026-04-27 18:35 52.22442 4.56775 1978 ft 185 kts 60°
2026-04-27 18:35 52.23087 4.58489 1991 ft 177 kts 59°
2026-04-27 18:35 52.23738 4.60198 1928 ft 177 kts 59°
2026-04-27 18:36 52.24393 4.61912 1715 ft 179 kts 59°
2026-04-27 18:36 52.25049 4.63628 1464 ft 176 kts 59°
2026-04-27 18:36 52.25683 4.65287 1231 ft 170 kts 58°
2026-04-27 18:36 52.26295 4.66876 954 ft 162 kts 57°
2026-04-27 18:37 52.26855 4.68372 790 ft 146 kts 59°
2026-04-27 18:37 52.27362 4.69724 566 ft 135 kts 55°
2026-04-27 18:37 52.27837 4.70937 473 ft 121 kts 56°
2026-04-27 18:37 52.28302 4.72137 314 ft 128 kts 56°
2026-04-27 18:38 52.28770 4.73364 103 ft 123 kts 56°
2026-04-27 18:38 52.29191 4.74450 0 ft 102 kts 57°
2026-04-27 18:38 52.29529 4.75329 -3 ft 81 kts 57°
2026-04-27 18:38 52.29745 4.75771 -3 ft 33 kts 36°
2026-04-27 18:39 52.29852 4.75868 -3 ft 14 kts 22°
2026-04-27 18:39 52.29934 4.75935 -2 ft 13 kts 27°
2026-04-27 18:39 52.30005 4.76021 -2 ft 13 kts 52°
2026-04-27 18:39 52.30051 4.76140 -2 ft 12 kts 57°
2026-04-27 18:40 52.30117 4.76311 -2 ft 23 kts 59°
2026-04-27 18:40 52.30202 4.76535 -2 ft 25 kts 58°
2026-04-27 18:40 52.30286 4.76724 -2 ft 18 kts 21°
2026-04-27 18:40 52.30358 4.76606 -2 ft 20 kts 300°
2026-04-27 18:41 52.30442 4.76502 -2 ft 17 kts 329°
2026-04-27 18:41 52.30531 4.76414 -2 ft 10 kts 349°
2026-04-27 18:41 52.30567 4.76475 -2 ft 5 kts 58°
2026-04-27 18:41 52.30572 4.76488 -2 ft 0 kts 57°